(204) Kallisto
ephemeris date magn radius delta ra dec elong phase
Today27 Jun 202613.52.315 AU2.034 AU12h30m-01°42'92.6°26.0°
Opposition9 Sep 202712.32.545 AU1.545 AU23h00m+02°46'171.5°3.4°
(204) Kallisto - 2026-06-27
astro.vanbuitenen.nl


 
-1 year
-1 month
-1 day
Now
+1 day
+1 month
+1 year

The interactive orbit chart above shows the body's path through the solar system and its position at the given date. Green and blue lines are shown perpendicular to the ecliptic plane: Green if the path is above the ecliptic plane, blue if it is below. (Left-click and drag to rotate the view; Right-click and drag to move the view; Use scroll wheel to zoom in our out.)

The orbital elements of Kallisto are:

            e (Eccentricity)                : 0.1761360
            a (Semimajor axis)              : 2.6696947
            i (Inclination)                 : 8.27108
            Ω (Longitude of ascending node) : 204.89542
            ω (Argument of perihelion)      : 56.98946
            M (Mean anomaly)                : 321.57039
            Epoch                           : 2026 Jun 09

            L (Longitude of perihelion)     : 261.61061
            B (Latitude of perihelion)      : 6.92869
            P (Orbital period in years)     : 4.36            
        

The light curve chart below shows the estimated development of the minor planet's magnitude.


The all-sky chart below shows the path of the minor planet over the same period as the light curve. The current position is marked yellow.





The following chart shows the path of the minor planet in the next few days. The field of view is optimized for (~10x50) binoculars and finderscopes.




Ephemerides:
Date       Time       RA (2000)    DEC (2000)    delta   radius  elong  phase   PA    magn
2026-06-27 00:00 UT   12 30 21.6   -01 42 21     2.034    2.315   92.6   26.0   113   13.5 
2026-06-27 04:07 UT   12 30 32.0   -01 43 02     2.035    2.314   92.5   26.0   113   13.5 
2026-06-28 00:00 UT   12 31 22.9   -01 46 22     2.044    2.313   91.9   26.1   113   13.5 
2026-06-29 00:00 UT   12 32 25.3   -01 50 30     2.055    2.312   91.2   26.1   113   13.5 
2026-06-30 00:00 UT   12 33 28.6   -01 54 46     2.065    2.311   90.6   26.1   113   13.5 
2026-07-01 00:00 UT   12 34 32.9   -01 59 10     2.075    2.309   89.9   26.1   113   13.6 
2026-07-02 00:00 UT   12 35 38.1   -02 03 40     2.086    2.308   89.2   26.1   113   13.6 
2026-07-03 00:00 UT   12 36 44.2   -02 08 18     2.096    2.306   88.5   26.1   113   13.6 
2026-07-04 00:00 UT   12 37 51.3   -02 13 03     2.107    2.305   87.9   26.2   113   13.6 
2026-07-05 00:00 UT   12 38 59.3   -02 17 55     2.117    2.304   87.2   26.2   113   13.6 
2026-07-06 00:00 UT   12 40 08.1   -02 22 54     2.128    2.302   86.6   26.2   113   13.6 
2026-07-07 00:00 UT   12 41 17.9   -02 27 59     2.138    2.301   85.9   26.1   113   13.6 
2026-07-08 00:00 UT   12 42 28.5   -02 33 11     2.149    2.300   85.3   26.1   113   13.6 
2026-07-09 00:00 UT   12 43 39.9   -02 38 29     2.159    2.298   84.6   26.1   113   13.6 
2026-07-10 00:00 UT   12 44 52.2   -02 43 54     2.169    2.297   84.0   26.1   113   13.6 
2026-07-11 00:00 UT   12 46 05.4   -02 49 25     2.180    2.296   83.3   26.1   113   13.7 
2026-07-12 00:00 UT   12 47 19.4   -02 55 02     2.190    2.294   82.7   26.1   113   13.7 
2026-07-13 00:00 UT   12 48 34.2   -03 00 45     2.201    2.293   82.1   26.0   113   13.7 
2026-07-14 00:00 UT   12 49 49.8   -03 06 34     2.211    2.292   81.4   26.0   113   13.7 
2026-07-15 00:00 UT   12 51 06.3   -03 12 28     2.221    2.291   80.8   26.0   112   13.7 
2026-07-16 00:00 UT   12 52 23.5   -03 18 28     2.231    2.289   80.2   25.9   112   13.7 
2026-07-17 00:00 UT   12 53 41.5   -03 24 34     2.242    2.288   79.6   25.9   112   13.7 
2026-07-18 00:00 UT   12 55 00.2   -03 30 45     2.252    2.287   79.0   25.9   112   13.7 
2026-07-19 00:00 UT   12 56 19.7   -03 37 01     2.262    2.285   78.4   25.8   112   13.7 
2026-07-20 00:00 UT   12 57 40.0   -03 43 21     2.272    2.284   77.8   25.8   112   13.7 
2026-07-21 00:00 UT   12 59 01.0   -03 49 47     2.283    2.283   77.2   25.7   112   13.7 
2026-07-22 00:00 UT   13 00 22.7   -03 56 18     2.293    2.282   76.6   25.7   112   13.7 
2026-07-23 00:00 UT   13 01 45.1   -04 02 53     2.303    2.281   76.0   25.6   112   13.7 


    Terminology:
            
    delta:  distance between minor planet and earth in AU
    radius: distance between minor planet and sun in AU
    magn:   magnitude (brightness) estimate    
    ra:     right ascension in hours (24h = 360deg)
    dec:    declination in degrees
    elong:  elongation in degrees (angle sun-earth-minor planet)    
    phase:  phase angle in degrees (angle sun-minor planet-earth)        
    AU:     Astronomical Unit (mean distance between earth and sun: 149597870.7 km
    

Orbital elements provided by the MPC (Minor Planet Center).
Calculations by a modified version of AAPlus, a C# implementation of the AA+ project by PJ Naughter from the algorithms presented in the book "Astronomical Algorithms" by Jean Meeus.
NGC2000 dso catalog and star labels from VizieR as provided by the Strasbourg astronomical Data Center.
Tycho2 catalog from the ESO archive.